DateTimeUTC,F1_A11,F1_S11,BsB_S11,BsG_S11,BsR_S11,BbsB_S11,BbsG_S11,BbsR_S11,BaB_A11,BaG_A11,BaR_A11,Tu_S11,T_S11,Uu_S11,U_S11,P_S11,T1_A11
2021-08-04T23:00:00Z,00000200,20000000,,,,,,,-000.56,-000.38,-000.06,18.7,25.7,07.7,05.0,0671.5,31.0
2021-08-04T23:01:00Z,00000200,20000000,,,,,,,0000.35,0000.20,-000.06,18.7,25.7,07.7,05.0,0671.5,31.0
2021-08-04T23:02:00Z,00000200,20000000,,,,,,,-000.46,-000.52,-000.01,18.7,25.7,07.7,05.0,0671.5,31.0
2021-08-04T23:03:00Z,00000200,60000000,,,,,,,0001.19,0001.38,0000.84,18.7,25.7,07.7,05.0,0671.5,31.0
2021-08-04T23:04:00Z,00000200,40000000,0005.06,0003.39,0001.91,0000.81,0000.42,0000.17,0001.35,0000.66,0000.93,18.8,25.5,07.4,04.9,0672.4,31.0
2021-08-04T23:05:00Z,00000200,00000000,0005.20,0003.52,0002.15,0000.93,0000.75,0000.31,0001.43,0001.41,0000.52,18.9,25.4,07.4,04.9,0672.5,31.0
2021-08-04T23:06:00Z,00000200,00000000,0005.04,0002.96,0001.90,0000.80,0000.47,0000.22,0000.79,0001.05,0001.04,18.9,25.4,07.4,05.0,0672.5,31.0
2021-08-04T23:07:00Z,00000200,00000000,0003.52,0002.48,0001.60,0001.06,0000.34,0000.20,0000.85,0000.39,0000.45,18.9,25.4,07.5,05.1,0672.5,31.0
2021-08-04T23:08:00Z,00000200,00000000,0004.54,0003.20,0001.94,0000.93,0000.62,0000.35,0001.20,0001.10,0001.11,18.9,25.4,07.5,05.1,0672.5,31.0
2021-08-04T23:09:00Z,00000200,00000000,0005.39,0003.51,0002.35,0001.21,0000.31,0000.37,0001.38,0001.40,0000.60,18.9,25.4,07.6,05.1,0672.5,31.0
2021-08-04T23:10:00Z,00000200,00000000,0005.50,0003.25,0001.92,0000.82,0000.44,0000.44,0000.84,0001.16,0000.67,18.8,25.4,07.5,05.0,0672.5,31.0
2021-08-04T23:11:00Z,00000200,00000000,0005.42,0003.40,0002.22,0000.69,0000.22,0000.38,0001.38,0000.57,0000.67,18.8,25.3,07.4,05.0,0672.5,31.0
2021-08-04T23:12:00Z,00000200,00000000,0005.45,0003.57,0002.31,0000.02,0000.42,0000.53,0001.55,0001.58,0001.13,18.8,25.3,07.5,05.0,0672.5,31.0
2021-08-04T23:13:00Z,00000200,00000000,0004.69,0003.30,0002.14,0000.64,0000.61,0000.27,0001.03,0001.21,0000.90,18.8,25.3,07.4,05.0,0672.4,31.0
2021-08-04T23:14:00Z,00000200,00000000,0004.67,0003.57,0002.22,0000.45,0000.67,0000.34,0000.95,0001.09,0000.54,18.8,25.3,07.4,05.0,0672.5,31.0
2021-08-04T23:15:00Z,00000200,00000000,0005.01,0003.43,0002.41,0001.08,0000.68,0000.24,0001.52,0000.83,0000.85,18.8,25.3,07.4,05.0,0672.4,31.0
2021-08-04T23:16:00Z,00000200,00000000,0004.92,0003.72,0002.33,0000.49,0000.30,0000.48,0001.24,0001.25,0000.91,18.8,25.3,07.3,05.0,0672.4,31.0
2021-08-04T23:17:00Z,00000200,00000000,0005.13,0002.92,0002.10,0000.80,0000.32,0000.25,0001.12,0000.97,0000.76,18.8,25.3,07.4,05.0,0672.4,31.0
2021-08-04T23:18:00Z,00000200,00000000,0004.78,0003.54,0002.11,0001.42,0000.85,0000.51,0001.09,0001.26,0000.94,18.8,25.3,07.5,05.1,0672.4,31.0
2021-08-04T23:19:00Z,00000200,00000000,0005.08,0003.59,0002.06,0000.62,0000.66,0000.05,0001.43,0001.23,0000.85,18.8,25.3,07.3,04.9,0672.4,31.0
2021-08-04T23:20:00Z,00000200,00000000,0005.37,0003.54,0002.34,0000.97,0000.59,0000.39,0001.18,0000.83,0001.00,18.8,25.3,07.4,05.0,0672.4,31.0
2021-08-04T23:21:00Z,00000200,00000000,0004.90,0003.14,0002.34,0000.82,0000.57,0000.57,0001.34,0001.50,0000.73,18.8,25.3,07.4,05.0,0672.4,31.0
2021-08-04T23:22:00Z,00000200,00000000,0005.38,0003.33,0001.97,0001.04,0000.65,0000.17,0001.61,0001.13,0000.99,18.8,25.3,07.4,05.0,0672.4,31.0
2021-08-04T23:23:00Z,00000200,00000000,0004.33,0003.10,0001.94,0000.38,0000.62,0000.16,0000.83,0000.95,0001.06,18.8,25.3,07.4,05.0,0672.4,31.0
2021-08-04T23:24:00Z,00000200,00000000,0004.61,0003.37,0002.32,0000.58,0000.43,0000.64,0000.84,0001.12,0000.69,18.8,25.3,07.4,05.0,0672.4,31.0
2021-08-04T23:25:00Z,00000200,00000000,0004.67,0003.37,0002.19,0001.19,0000.36,0000.43,0001.55,0001.14,0000.95,18.8,25.3,07.4,04.9,0672.4,31.0
2021-08-04T23:26:00Z,00000200,00000000,0005.05,0003.58,0002.19,0001.03,0000.46,0000.39,0001.43,0001.11,0000.68,18.8,25.2,07.4,05.0,0672.4,31.0
2021-08-04T23:27:00Z,00000200,00000000,0005.00,0003.61,0001.95,0000.81,0000.46,0000.15,0000.78,0000.97,0000.94,18.8,25.3,07.4,05.0,0672.4,31.0
2021-08-04T23:28:00Z,00000200,00000000,0004.66,0003.57,0002.39,0000.39,0000.60,0000.22,0001.63,0001.47,0001.03,18.8,25.2,07.4,05.0,0672.4,31.0
2021-08-04T23:29:00Z,00000200,00000000,0005.07,0003.32,0002.30,0001.08,0000.64,0000.61,0001.22,0001.12,0000.64,18.8,25.2,07.3,04.9,0672.4,31.0
2021-08-04T23:30:00Z,00000200,00000000,0005.50,0003.97,0002.08,0000.96,0000.44,0000.50,0001.48,0001.24,0001.12,18.8,25.2,07.3,05.0,0672.4,31.0
2021-08-04T23:31:00Z,00000200,00000000,0005.93,0003.29,0002.03,0000.63,0000.19,0000.41,0001.40,0001.69,0000.94,18.9,25.2,07.3,04.9,0672.4,31.0
2021-08-04T23:32:00Z,00000200,00000000,0005.31,0003.55,0002.35,0001.37,0000.57,0000.32,0001.37,0001.14,0001.39,19.0,25.3,07.3,04.9,0672.4,31.0
2021-08-04T23:33:00Z,00000200,00000000,0004.83,0003.41,0002.12,0000.02,0000.50,0000.13,0001.05,0001.12,0000.55,19.1,25.4,07.3,05.0,0672.4,31.0
2021-08-04T23:34:00Z,00000200,00000000,0004.86,0003.65,0002.52,0000.98,0000.61,0000.48,0001.44,0000.77,0000.78,19.1,25.4,07.2,04.9,0672.4,31.1
2021-08-04T23:35:00Z,00000200,00000000,0005.70,0003.63,0002.22,0000.91,0000.74,0000.08,0001.19,0001.04,0000.86,19.1,25.4,07.2,04.9,0672.4,31.0
2021-08-04T23:36:00Z,00000200,00000000,0005.69,0003.40,0002.20,0001.35,0000.49,0000.30,0001.00,0001.21,0000.63,19.1,25.4,07.2,04.9,0672.4,31.0
2021-08-04T23:37:00Z,00000200,00000000,0005.15,0003.42,0002.12,0001.20,0000.51,0000.44,0001.10,0001.10,0000.88,19.1,25.4,07.2,04.9,0672.4,31.0
2021-08-04T23:38:00Z,00000200,00000000,0005.06,0003.39,0002.32,0000.24,0000.20,0000.52,0001.64,0001.29,0001.19,19.1,25.4,07.1,04.8,0672.4,31.0
2021-08-04T23:39:00Z,00000200,00000000,0005.64,0003.48,0001.95,0001.24,0000.49,0000.40,0001.41,0001.07,0000.83,19.1,25.4,07.1,04.8,0672.4,31.0
2021-08-04T23:40:00Z,00000200,00000000,0005.08,0003.73,0002.50,0000.77,0000.50,0000.63,0001.04,0000.91,0000.89,19.0,25.3,07.1,04.8,0672.4,31.0
2021-08-04T23:41:00Z,00000200,00000000,0005.77,0003.64,0002.21,0001.28,0000.51,0000.59,0001.06,0001.17,0000.54,19.0,25.3,07.1,04.8,0672.4,31.0
2021-08-04T23:42:00Z,00000200,00000000,0005.30,0003.86,0002.48,0000.40,0000.53,0000.46,0001.30,0001.11,0000.83,19.0,25.3,07.1,04.8,0672.4,31.1
2021-08-04T23:43:00Z,00000200,00000000,0005.22,0003.88,0002.33,0000.88,0000.84,0000.92,0001.21,0000.76,0001.14,19.0,25.3,07.0,04.8,0672.4,31.0
2021-08-04T23:44:00Z,00000200,00000000,0003.88,0003.29,0002.32,0000.38,0000.66,0000.76,0000.94,0001.27,0000.63,19.0,25.3,07.0,04.7,0672.4,31.0
2021-08-04T23:45:00Z,00000200,00000000,0004.47,0003.21,0001.65,0000.66,0000.54,-000.18,0000.98,0000.97,0000.22,18.9,25.3,06.9,04.7,0672.4,31.0
2021-08-04T23:46:00Z,00000200,00000000,0005.14,0003.27,0002.56,0000.87,0000.72,0000.32,0001.21,0001.00,0000.98,18.9,25.3,07.0,04.7,0672.4,31.0
2021-08-04T23:47:00Z,00000200,00000000,0004.09,0003.01,0002.09,0000.83,0000.47,0000.43,0001.35,0000.89,0000.69,18.9,25.3,07.0,04.7,0672.4,31.0
2021-08-04T23:48:00Z,00000200,00000000,0000.38,-000.15,0000.41,-000.40,-000.04,0000.02,-000.66,-000.53,-000.04,18.9,25.3,06.9,04.7,0672.4,31.0
2021-08-04T23:49:00Z,00000200,00000000,0002.01,0001.27,0000.49,0000.01,0000.25,0000.10,0000.58,0000.71,0000.15,18.9,25.3,06.8,04.6,0672.4,31.0
2021-08-04T23:50:00Z,00000200,00000000,0004.36,0003.04,0001.67,0001.31,0000.50,0000.44,0001.18,0000.80,0000.95,18.9,25.3,06.8,04.6,0672.4,31.0
2021-08-04T23:51:00Z,00000200,00000000,0005.64,0003.70,0002.65,0000.51,0000.68,0000.40,0001.14,0001.69,0000.80,18.9,25.3,06.8,04.6,0672.3,31.0
2021-08-04T23:52:00Z,00000200,00000000,0004.74,0003.47,0002.12,0001.04,0000.33,0000.69,0001.23,0001.31,0001.07,18.9,25.3,06.9,04.7,0672.3,31.0
2021-08-04T23:53:00Z,00000200,00000000,0005.26,0003.83,0002.17,0000.55,0000.58,0000.62,0001.52,0000.89,0000.58,18.8,25.2,07.0,04.7,0672.4,31.0
2021-08-04T23:54:00Z,00000200,00000000,0005.59,0003.47,0002.49,0001.06,0000.67,0000.62,0001.39,0001.24,0001.47,18.8,25.2,06.8,04.6,0672.3,31.0
2021-08-04T23:55:00Z,00000200,00000000,0004.69,0003.63,0002.26,0000.30,0000.39,0000.02,0001.30,0001.35,0000.90,18.8,25.2,07.0,04.7,0672.4,31.0
2021-08-04T23:56:00Z,00000200,00000000,0005.43,0003.65,0002.14,0000.80,0000.51,0000.10,0001.03,0001.31,0000.98,18.8,25.2,07.1,04.8,0672.4,31.0
2021-08-04T23:57:00Z,00000200,40000000,,,,,,,0000.70,0000.72,0000.27,18.8,25.3,07.1,04.8,0672.4,31.0
2021-08-04T23:58:00Z,00000200,60000000,,,,,,,-000.07,-000.45,0000.07,18.6,25.4,07.3,04.8,0671.4,31.0
2021-08-04T23:59:00Z,00000200,20000000,,,,,,,0000.18,-000.14,-000.00,18.5,25.5,07.0,04.6,0671.4,31.0
